Flag for Germany Weather past 2 weeks in Mühlhausen/Thüringen, Thuringia, Germany

Now
36 °F

Overcast.


Feels Like: 30 °F
Forecast: 36 / 43 °F
Wind: 8 mph from Southwest

Location: Erfurt-Bindersleben

Current Time: Mar 1, 2015 at 5:40:15 AM

Latest Report: Mar 1, 2015 at 4:00 AM


Visibility: 25 mi

Pressure: 29.81 "Hg

Humidity: 75%

Dew point: 29 °F

Location of Mühlhausen/ThüringenLocation

Historic Weather in Mühlhausen/Thüringen — Graph

°F

Mühlhausen/Thüringen temperature yesterday

Maximum temperature yesterday: 42 °F (at 1:00 PM)
Minimum temperature yesterday: 29 °F (at 7:00 AM)
Average temperature yesterday: 35 °F

Past Weeks' High & Low Weather Summary

 TemperatureHumidityPressure
High47 °F (Feb 26, 3:00 PM)100% (Feb 15, 7:00 AM)30.78 "Hg (Feb 15, 7:00 AM)
Low22 °F (Feb 17, 4:00 AM)46% (Feb 26, 2:00 PM)29.44 "Hg (Feb 21, 8:00 AM)
Average34 °F84%30.04 "Hg
* Reported Feb 14 4:00 AM — Mar 1 4:00 AM, Mühlhausen/Thüringen, Weather by CustomWeather, © 2015

Note: Actual official high and low records may vary slightly from our data, if they occured in-between our weather recording intervals... More about our weather records

Advertising

Mühlhausen/Thüringen weather history for previous 24 hours

 ConditionsComfort  
Time TempWeatherWind HumidityBarometerVisibility
4:00 AM
Sun, Mar 1
36 °FOvercast.8 mph75%29.81 "Hg25 mi
3:00 AM36 °FPassing clouds.7 mph76%29.85 "Hg25 mi
2:00 AM34 °FPassing clouds.6 mph78%29.90 "Hg25 mi
1:00 AM33 °FPassing clouds.6 mph82%29.94 "Hg31 mi
12:00 AM32 °FPassing clouds.6 mph81%29.96 "Hg31 mi
11:00 PM
Sat, Feb 28
33 °FClear.5 mph80%30.00 "Hg31 mi
10:00 PM33 °FClear.7 mph78%30.02 "Hg31 mi
9:00 PM33 °FClear.6 mph81%30.04 "Hg31 mi
8:00 PM35 °FPassing clouds.6 mph75%30.06 "Hg28 mi
7:00 PM36 °FPassing clouds.5 mph71%30.07 "Hg28 mi
6:00 PM37 °FPassing clouds.3 mph70%30.08 "Hg25 mi
5:00 PM40 °FPartly sunny.5 mph60%30.08 "Hg28 mi
4:00 PM40 °FPartly sunny.7 mph63%30.10 "Hg28 mi
3:00 PM41 °FPartly sunny.6 mph60%30.10 "Hg28 mi
2:00 PM40 °FPartly sunny.6 mph60%30.12 "Hg25 mi
1:00 PM42 °FScattered clouds.6 mph64%30.13 "Hg25 mi
12:00 PM38 °FScattered clouds.5 mph75%30.17 "Hg25 mi
11:00 AM38 °FScattered clouds.3 mph77%30.17 "Hg22 mi
10:00 AM35 °FPassing clouds.2 mph90%30.18 "Hg16 mi
9:00 AM32 °FPassing clouds.2 mph97%30.19 "Hg16 mi
8:00 AM30 °FPartly sunny.3 mph95%30.20 "Hg19 mi
7:00 AM29 °FPassing clouds.3 mph94%30.19 "Hg19 mi
6:00 AM31 °FFog.2 mph93%30.17 "Hg16 mi
5:00 AM32 °FPassing clouds.3 mph98%30.16 "Hg6 mi
Weather by CustomWeather, © 2015

See weather overviewHow to use our weather pages